KI5NYZ Weather Reports


Display with metric or nautical units.
time (UTC)temp
F
wind
direction
speed
MPH
gust
MPH
rain 1hr
in
rain 24hr
in
rain mn
in
humidity
%
barometer
mb
20260504013520 71 206 4.0 8.0 0.00 0.01 0.01 40 1013.9
20260504012523 72 222 5.0 7.0 0.00 0.01 0.01 38 1013.9
20260504011520 73 203 5.0 9.0 0.00 0.01 0.01 36 1013.8
20260504010541 74 206 4.0 12.0 0.00 0.01 0.01 35 1013.8
20260504005601 74 204 4.0 11.0 0.00 0.01 0.01 34 1013.9
20260504004542 75 197 5.0 13.0 0.00 0.01 0.01 34 1013.9
20260504003521 74 216 4.0 10.0 0.00 0.01 0.01 33 1014.0
20260504002519 74 223 5.0 17.0 0.00 0.01 0.01 34 1014.1
20260504001518 74 238 9.0 16.0 0.00 0.01 0.01 33 1014.2
20260504000520 75 225 7.0 19.0 0.00 0.01 0.01 33 1014.3
20260503235519 75 233 7.0 19.0 0.00 0.01 0.01 33 1014.3
20260503234519 75 222 6.0 16.0 0.00 0.01 0.01 32 1014.4
20260503233519 75 214 3.0 12.0 0.00 0.01 0.01 32 1014.5
20260503232520 75 238 5.0 14.0 0.00 0.01 0.01 32 1014.7
20260503231520 75 240 7.0 13.0 0.00 0.01 0.01 32 1014.7
20260503230520 75 240 7.0 15.0 0.00 0.01 0.01 32 1014.7
20260503225520 76 237 6.0 16.0 0.00 0.01 0.01 31 1014.8
20260503224541 76 239 11.0 18.0 0.00 0.01 0.01 31 1014.9
20260503223520 76 239 7.0 14.0 0.00 0.01 0.01 31 1015.0
20260503222520 76 238 6.0 14.0 0.00 0.01 0.01 31 1015.1
20260503221543 76 241 5.0 11.0 0.00 0.01 0.01 32 1015.2
20260503220520 76 223 5.0 16.0 0.00 0.01 0.01 30 1015.3
20260503215523 76 259 5.0 11.0 0.00 0.01 0.01 31 1015.5
20260503214522 76 225 5.0 15.0 0.00 0.01 0.01 31 1015.8
20260503213521 75 227 5.0 16.0 0.00 0.01 0.01 32 1016.0
20260503212521 76 219 5.0 15.0 0.00 0.01 0.01 32 1016.2
20260503211522 76 214 6.0 16.0 0.00 0.01 0.01 31 1016.4
20260503210518 75 226 5.0 16.0 0.00 0.01 0.01 32 1016.7
20260503205539 75 236 7.0 21.0 0.00 0.01 0.01 33 1016.9
20260503204519 75 229 4.0 13.0 0.01 0.01 0.01 32 1017.0
20260503203519 75 231 5.0 13.0 0.01 0.01 0.01 31 1017.2
20260503202520 75 219 7.0 15.0 0.01 0.01 0.01 33 1017.3
20260503201519 75 226 6.0 16.0 0.01 0.01 0.01 32 1017.5
20260503200519 75 237 8.0 15.0 0.01 0.01 0.01 33 1017.7
20260503195519 75 213 5.0 11.0 0.01 0.01 0.01 33 1017.8
20260503194520 74 201 5.0 13.0 0.00 0.00 0.00 33 1018.0
20260503193519 74 205 6.0 13.0 0.00 0.00 0.00 33 1018.3
20260503192525 74 234 6.0 13.0 0.00 0.00 0.00 33 1018.5
20260503191520 74 226 7.0 18.0 0.00 0.00 0.00 34 1018.6
20260503190521 74 204 7.0 16.0 0.00 0.00 0.00 35 1018.7
20260503185520 74 199 6.0 14.0 0.00 0.00 0.00 34 1018.9
20260503184543 74 200 5.0 11.0 0.00 0.00 0.00 34 1019.1
20260503183541 73 217 5.0 13.0 0.00 0.00 0.00 35 1019.4
20260503182542 73 213 7.0 17.0 0.00 0.00 0.00 36 1019.7
20260503181521 73 240 7.0 17.0 0.00 0.00 0.00 35 1019.8
20260503180522 73 205 5.0 12.0 0.00 0.00 0.00 36 1020.0
20260503175521 72 219 5.0 13.0 0.00 0.00 0.00 37 1020.3
20260503174519 71 219 6.0 14.0 0.00 0.00 0.00 39 1020.4
20260503173518 71 226 6.0 14.0 0.00 0.00 0.00 38 1020.5
20260503172519 70 204 5.0 12.0 0.00 0.00 0.00 39 1020.7
20260503171519 70 204 5.0 11.0 0.00 0.00 0.00 39 1020.8
20260503170539 70 188 6.0 12.0 0.00 0.00 0.00 40 1020.9
20260503150521 64 235 5.0 11.0 0.00 0.00 0.00 53 1021.9
20260503130519 52 238 4.0 6.0 0.00 0.00 0.00 82 1021.6
20260503110520 49 232 2.0 3.0 0.00 0.00 0.00 87 1020.5
20260503081521 51 255 2.0 4.0 0.00 0.00 0.00 82 1021.0
20260503080528 52 254 3.0 5.0 0.00 0.00 0.00 81 1021.0
20260503072539 53 249 3.0 5.0 0.00 0.00 0.00 78 1021.4
20260503071519 53 245 4.0 6.0 0.00 0.00 0.00 78 1021.4
20260503070519 53 251 3.0 4.0 0.00 0.00 0.00 77 1021.5
20260503054520 54 230 3.0 5.0 0.00 0.00 0.00 74 1021.7
20260503053520 54 235 2.0 4.0 0.00 0.00 0.00 75 1021.7
20260503052521 54 233 2.0 4.0 0.00 0.00 0.00 74 1021.7
20260503051522 55 235 3.0 4.0 0.00 0.00 0.00 73 1021.7
20260503050550 54 240 3.0 5.0 0.00 0.00 0.00 73 1021.7
20260503045521 54 241 4.0 6.0 0.00 0.00 0.00 74 1021.6
20260503044521 55 234 2.0 4.0 0.00 0.00 0.00 74 1021.6
20260503043519 55 227 2.0 4.0 0.00 0.00 0.00 73 1021.6
20260503042519 55 224 2.0 3.0 0.00 0.00 0.00 73 1021.5
20260503041523 56 224 2.0 4.0 0.00 0.00 0.00 71 1021.4
20260503040519 56 225 3.0 4.0 0.00 0.00 0.00 69 1021.4
20260503035519 56 226 3.0 5.0 0.00 0.00 0.00 67 1021.4
20260503034519 56 225 3.0 4.0 0.00 0.00 0.00 67 1021.4
20260503033542 57 235 0.0 3.0 0.00 0.00 0.00 66 1021.3
20260503032522 57 221 0.0 2.0 0.00 0.00 0.00 64 1021.3
20260503031521 58 202 1.0 4.0 0.00 0.00 0.00 62 1021.1
20260503030543 58 204 1.0 3.0 0.00 0.00 0.00 61 1020.9
20260503025520 59 205 1.0 3.0 0.00 0.00 0.00 59 1020.9
20260503024519 60 219 2.0 4.0 0.00 0.00 0.00 57 1020.8
20260503023520 60 221 2.0 5.0 0.00 0.00 0.00 56 1020.7
20260503022520 60 224 2.0 4.0 0.00 0.00 0.00 55 1020.7
20260503021520 61 222 1.0 4.0 0.00 0.00 0.00 54 1020.6
20260503020521 62 232 2.0 4.0 0.00 0.00 0.00 52 1020.6
20260503015522 62 230 2.0 4.0 0.00 0.00 0.00 52 1020.6
20260503014522 63 208 2.0 5.0 0.00 0.00 0.00 50 1020.5